Date_and_time,latitude,longitude,wind_speed,RelWindDirFrom,WindDirFrom,air_pressure,air_temperature,relative_humidity,Temp,platform_speed_wrt_ground,air_pressure_at_mean_sea_level,platform_orientation
2018-08-05 23:50,50.6304516666667,-96.9807683333333,10.0,15.0,341,987.74,16.4,74,20.77,0.0,1013.97,229.4
2018-08-06 00:00,50.63045,-96.9807683333333,10.2,17.1,338,987.93,16.3,73,20.75,0.0,1014.17,61.7
2018-08-06 00:10,50.6304516666667,-96.9807683333333,8.0,14.1,324,988.19,16.2,72,20.74,0.0,1014.44,61.7
2018-08-06 00:20,50.63045,-96.9807583333333,8.7,14.1,326,988.42,16.1,71,20.74,0.0,1014.68,61.7
2018-08-06 00:30,50.6304566666667,-96.9807566666667,9.0,13.0,329,988.53,16.0,71,20.74,0.0,1014.79,61.7
2018-08-06 00:40,50.630455,-96.9807583333333,10.2,13.5,341,988.58,15.9,73,20.73,0.0,1014.85,61.7
2018-08-06 00:50,50.6304516666667,-96.98076,8.7,14.5,326,988.71,15.8,72,20.74,0.0,1015.00,61.7
2018-08-06 01:00,50.6304533333333,-96.98076,7.6,12.6,326,988.83,15.7,72,20.74,0.0,1015.13,0.0
2018-08-06 01:10,50.6304516666667,-96.9807583333333,7.2,11.8,324,989.01,15.7,73,20.73,0.0,1015.33,0.0
2018-08-06 01:20,50.6304516666667,-96.9807583333333,6.2,8.8,320,989.19,15.5,74,20.71,0.0,1015.52,0.0
2018-08-06 01:30,50.6304516666667,-96.98076,8.5,12.7,324,989.26,15.4,74,20.71,0.0,1015.61,0.0
2018-08-06 01:40,50.630435,-96.980755,7.7,11.4,327,989.29,15.4,75,20.70,0.0,1015.64,0.0
2018-08-06 01:50,50.6304433333333,-96.980765,6.6,9.9,319,989.42,15.3,75,20.72,0.0,1015.78,0.0
2018-08-06 02:00,50.6304466666667,-96.9807683333333,5.5,7.9,319,989.57,15.3,76,20.71,0.0,1015.95,66.4
2018-08-06 02:10,50.6304466666667,-96.9807666666667,6.7,10.2,317,989.64,15.1,77,20.70,0.0,1016.03,66.4
2018-08-06 02:20,50.6304466666667,-96.9807683333333,6.4,9.0,321,989.67,15.1,76,20.68,0.0,1016.07,66.4
2018-08-06 02:30,50.6304466666667,-96.9807683333333,7.4,11.3,331,989.81,14.9,81,20.66,0.0,1016.22,66.4
2018-08-06 02:40,50.6304483333333,-96.9807683333333,5.7,8.8,322,989.90,14.7,80,20.67,0.0,1016.32,66.4
2018-08-06 02:50,50.6304483333333,-96.9807666666667,5.8,9.4,305,989.89,14.7,79,20.67,0.0,1016.32,66.4
2018-08-06 03:00,50.630455,-96.98078,5.3,8.2,289,989.91,14.6,80,20.67,0.0,1016.35,270.0
2018-08-06 03:10,50.6304616666667,-96.980765,5.5,9.2,290,989.92,14.5,80,20.65,0.0,1016.37,270.0
2018-08-06 03:20,50.630455,-96.9807616666667,6.5,10.9,295,989.96,14.5,79,20.65,0.0,1016.42,270.0
2018-08-06 03:30,50.630455,-96.98076,5.9,9.2,309,990.03,14.4,79,20.63,0.0,1016.50,270.0
2018-08-06 03:40,50.6304533333333,-96.9807633333333,6.1,9.0,323,990.05,14.4,80,20.61,0.0,1016.52,270.0
2018-08-06 03:50,50.630455,-96.9807633333333,7.0,10.4,318,990.10,14.4,79,20.59,0.0,1016.57,270.0
2018-08-06 04:00,50.630455,-96.9807616666667,5.6,8.9,324,990.28,14.3,80,20.59,0.0,1016.77,0.0
2018-08-06 04:10,50.6304533333333,-96.9807616666667,5.4,8.6,323,990.40,14.3,79,20.59,0.0,1016.89,0.0
2018-08-06 04:20,50.6304483333333,-96.980755,6.1,8.7,329,990.44,14.3,79,20.58,0.0,1016.95,0.0
2018-08-06 04:30,50.63045,-96.98076,6.1,9.4,324,990.49,14.3,79,20.58,0.0,1017.00,0.0
2018-08-06 04:40,50.6304316666667,-96.9807466666667,6.2,8.8,327,990.50,14.2,80,20.57,0.0,1017.02,0.0
2018-08-06 04:50,50.6304433333333,-96.9807533333333,6.8,9.6,324,990.42,14.2,80,20.56,0.0,1016.94,0.0
2018-08-06 05:00,50.6304416666667,-96.9807516666667,6.1,9.5,325,990.40,14.1,81,20.56,0.0,1016.92,125.3
2018-08-06 05:10,50.6304433333333,-96.9807516666667,6.7,10.1,326,990.37,14.1,81,20.56,0.0,1016.91,125.3
2018-08-06 05:20,50.630445,-96.980755,5.9,8.9,326,990.43,14.0,81,20.55,0.0,1016.97,125.3
2018-08-06 05:30,50.6304483333333,-96.9807583333333,6.5,9.3,332,990.53,13.9,82,20.55,0.0,1017.08,125.3
2018-08-06 05:40,50.6304483333333,-96.98076,6.6,10.1,335,990.58,14.0,82,20.53,0.0,1017.13,125.3
2018-08-06 05:50,50.6304483333333,-96.98076,6.1,8.7,328,990.66,14.0,83,20.52,0.0,1017.21,125.3
2018-08-06 06:00,50.63045,-96.98076,6.1,8.2,334,990.79,13.9,84,20.52,0.0,1017.34,90.0
2018-08-06 06:10,50.63045,-96.98076,6.0,9.4,331,990.80,13.8,85,20.51,0.0,1017.36,90.0
2018-08-06 06:20,50.6304516666667,-96.98076,6.5,8.9,329,990.76,13.7,86,20.49,0.0,1017.32,90.0
2018-08-06 06:30,50.63045,-96.98076,7.4,10.5,334,990.70,13.6,88,20.48,0.0,1017.27,90.0
2018-08-06 06:40,50.63045,-96.98076,7.2,10.0,335,990.63,13.6,89,20.48,0.0,1017.20,90.0
2018-08-06 06:50,50.63045,-96.98076,5.8,8.5,336,990.64,13.5,90,20.47,0.0,1017.22,90.0
2018-08-06 07:00,50.6304483333333,-96.9807616666667,5.4,7.1,333,990.62,13.5,92,20.48,0.0,1017.21,142.0
2018-08-06 07:10,50.63045,-96.9807616666667,5.4,7.4,339,990.57,13.5,93,20.48,0.0,1017.16,142.0
2018-08-06 07:20,50.63045,-96.9807616666667,5.2,7.1,336,990.55,13.7,93,20.48,0.0,1017.13,142.0
2018-08-06 07:30,50.63047,-96.9807716666667,5.4,7.8,318,990.50,13.3,93,20.47,0.0,1017.09,142.0
2018-08-06 07:40,50.6304566666667,-96.98077,4.8,6.7,325,990.48,13.2,95,20.44,0.0,1017.08,142.0
2018-08-06 07:50,50.630455,-96.9807683333333,6.1,9.2,317,990.38,12.9,96,20.42,0.0,1017.00,142.0
2018-08-06 08:00,50.630455,-96.9807683333333,6.3,9.3,323,990.39,12.7,97,20.40,0.0,1017.01,323.4
2018-08-06 08:10,50.6304566666667,-96.9807683333333,5.9,9.2,319,990.44,12.7,97,20.40,0.0,1017.07,323.4
2018-08-06 08:20,50.6304566666667,-96.9807683333333,5.8,8.4,328,990.49,12.9,97,20.40,0.0,1017.12,323.4
2018-08-06 08:30,50.630455,-96.9807716666667,5.4,7.5,327,990.49,13.0,96,20.40,0.0,1017.11,323.4
2018-08-06 08:40,50.6304566666667,-96.980765,6.2,11.1,324,990.57,13.0,96,20.41,0.0,1017.20,323.4
2018-08-06 08:50,50.6304516666667,-96.9807583333333,6.4,10.3,328,990.56,13.0,98,20.41,0.0,1017.19,323.4
2018-08-06 09:00,50.6304533333333,-96.9807583333333,6.6,13.2,333,990.59,13.2,99,20.40,0.0,1017.22,90.0
2018-08-06 09:10,50.6304533333333,-96.98076,11.1,14.0,3,990.49,14.1,95,20.38,0.0,1017.06,90.0
2018-08-06 09:20,50.6304483333333,-96.9807566666667,10.2,13.8,3,990.54,14.4,89,20.37,0.0,1017.11,90.0
2018-08-06 09:30,50.630455,-96.9807583333333,8.8,12.1,16,990.58,14.4,86,20.36,0.0,1017.16,90.0
2018-08-06 09:40,50.630455,-96.98076,8.7,11.3,20,990.58,14.6,78,20.37,0.0,1017.16,90.0
2018-08-06 09:50,50.6304566666667,-96.9807616666667,4.8,9.5,323,990.60,14.4,82,20.36,0.0,1017.21,90.0
2018-08-06 10:00,50.6304566666667,-96.9807616666667,4.5,7.7,287,990.76,12.9,95,20.35,0.0,1017.44,38.0
2018-08-06 10:10,50.630455,-96.98076,6.1,8.6,305,990.69,12.6,95,20.34,0.0,1017.38,38.0
2018-08-06 10:20,50.630455,-96.98076,6.1,8.5,307,990.67,12.3,95,20.33,0.0,1017.36,38.0
2018-08-06 10:30,50.6304566666667,-96.9807583333333,6.2,8.4,308,990.67,12.1,96,20.32,0.0,1017.37,38.0
2018-08-06 10:40,50.6304583333333,-96.980755,6.1,9.0,303,990.81,12.0,97,20.32,0.0,1017.52,38.0
2018-08-06 10:50,50.6304533333333,-96.9807633333333,6.2,8.9,310,990.89,11.9,98,20.31,0.0,1017.60,38.0
2018-08-06 11:00,50.630455,-96.9807616666667,6.1,8.8,308,991.00,11.9,97,20.29,0.0,1017.67,90.0
2018-08-06 11:10,50.6304566666667,-96.9807616666667,5.6,7.7,307,991.23,11.8,98,20.28,0.0,1017.89,90.0
2018-08-06 11:20,50.630455,-96.9807583333333,6.3,8.8,306,991.39,11.6,99,20.29,0.0,1018.06,90.0
2018-08-06 11:30,50.6304566666667,-96.98076,6.7,8.8,307,991.46,11.4,99,20.29,0.0,1018.14,90.0
2018-08-06 11:40,50.6304566666667,-96.98076,6.7,8.8,308,991.44,11.1,99,20.29,0.0,1018.15,90.0
2018-08-06 11:50,50.6304583333333,-96.9807233333333,6.4,8.4,307,991.54,10.9,99,20.28,0.0,1018.32,90.0
2018-08-06 12:00,50.6304566666667,-96.980745,5.1,7.1,299,991.65,10.9,99,20.26,0.0,1018.46,90.0
2018-08-06 12:10,50.630455,-96.9807466666667,4.8,6.9,301,991.74,10.8,99,20.24,0.0,1018.56,90.0
2018-08-06 12:20,50.6304666666667,-96.9808016666667,4.4,6.6,297,991.91,10.9,99,20.22,0.0,1018.74,90.0
2018-08-06 12:30,50.6304566666667,-96.980745,5.7,8.4,306,991.86,11.4,96,20.21,0.0,1018.67,90.0
2018-08-06 12:40,50.6304633333333,-96.9807516666667,6.1,8.4,312,991.68,11.6,95,20.21,0.0,1018.49,90.0
2018-08-06 12:50,50.63046,-96.9807533333333,4.4,6.4,324,991.73,12.0,92,20.20,0.0,1018.52,90.0
2018-08-06 13:00,50.6304466666667,-96.9807633333333,4.1,6.3,327,991.62,12.3,91,20.18,0.0,1018.39,228.3
2018-08-06 13:10,50.6304516666667,-96.9807633333333,5.6,7.5,348,991.45,13.3,88,20.18,0.0,1018.17,228.3
2018-08-06 13:20,50.6304566666667,-96.980765,4.2,7.9,327,991.51,14.1,83,20.18,0.0,1018.22,228.3
2018-08-06 13:30,50.630445,-96.9807566666667,4.6,8.3,189,991.73,13.2,90,20.18,0.0,1018.50,228.3
2018-08-06 13:40,50.6304483333333,-96.9807483333333,0.8,4.4,224,991.83,13.8,84,20.17,0.0,1018.58,228.3
2018-08-06 13:50,50.6304433333333,-96.9807533333333,1.5,5.1,56,991.86,14.9,80,20.17,0.0,1018.56,228.3
2018-08-06 14:00,50.630445,-96.980755,0.7,3.0,154,991.84,14.8,81,20.17,0.0,1018.55,360.0
2018-08-06 14:10,50.6304466666667,-96.9807583333333,2.5,4.3,161,991.88,14.3,85,20.16,0.0,1018.60,360.0
2018-08-06 14:20,50.630445,-96.98076,3.6,5.9,183,991.97,14.0,86,20.16,0.0,1018.69,360.0
2018-08-06 14:30,50.630445,-96.98076,6.0,7.2,169,992.17,13.9,86,20.15,0.0,1018.90,360.0
2018-08-06 14:40,50.6304466666667,-96.98076,4.1,5.9,151,992.14,14.0,85,20.15,0.0,1018.83,360.0
2018-08-06 14:50,50.6304466666667,-96.9807616666667,3.1,5.6,140,992.22,14.8,79,20.13,0.0,1018.87,360.0
2018-08-06 15:00,50.6304483333333,-96.9807616666667,2.8,4.7,126,992.35,15.5,75,20.13,0.0,1018.92,240.8
2018-08-06 15:10,50.6304483333333,-96.9807616666667,2.6,4.5,129,992.45,15.4,72,20.13,0.0,1018.99,240.8
2018-08-06 15:20,50.630445,-96.980715,2.3,4.6,91,992.47,16.4,65,20.13,0.0,1019.01,240.8
2018-08-06 15:30,50.6304533333333,-96.9807583333333,0.9,2.8,58,992.51,16.2,62,20.13,0.0,1019.03,240.8
2018-08-06 15:40,50.6304533333333,-96.98076,2.4,4.5,44,992.57,16.5,63,20.14,0.0,1019.03,240.8
2018-08-06 15:50,50.6304633333333,-96.9807616666667,2.5,5.0,49,992.47,16.2,61,20.14,0.0,1018.94,240.8
2018-08-06 16:00,50.63045,-96.9807666666667,1.9,5.1,48,992.45,16.3,61,20.14,0.0,1018.93,360.0
2018-08-06 16:10,50.630455,-96.98077,1.9,4.5,75,992.40,17.0,58,20.15,0.0,1018.87,360.0
2018-08-06 16:20,50.63043,-96.980735,3.1,5.7,60,992.29,16.8,62,20.17,0.0,1018.78,360.0
2018-08-06 16:30,50.6304366666667,-96.9807516666667,2.7,4.7,59,992.28,16.5,61,20.17,0.0,1018.77,360.0
2018-08-06 16:40,50.630445,-96.9807516666667,3.3,6.9,67,992.24,16.3,60,20.16,0.0,1018.70,360.0
2018-08-06 16:50,50.6304433333333,-96.9807566666667,3.6,6.2,49,992.28,16.4,58,20.16,0.0,1018.70,360.0
2018-08-06 17:00,50.6304466666667,-96.98076,4.1,5.6,60,992.24,16.2,54,20.17,0.0,1018.68,360.0
2018-08-06 17:10,50.6304483333333,-96.9807616666667,4.5,7.1,52,992.22,16.3,54,20.20,0.0,1018.61,360.0
2018-08-06 17:20,50.63047,-96.98079,5.2,7.8,61,992.13,16.4,56,20.24,0.0,1018.52,360.0
2018-08-06 17:30,50.6304516666667,-96.9807866666667,7.0,9.2,60,992.01,16.2,56,20.29,0.0,1018.40,360.0
2018-08-06 17:40,50.6304483333333,-96.98078,6.5,8.7,55,991.89,16.1,58,20.35,0.0,1018.29,360.0
2018-08-06 17:50,50.6304533333333,-96.9807683333333,6.8,9.4,64,991.79,16.2,59,20.34,0.0,1018.17,360.0
2018-08-06 18:00,50.6304566666667,-96.980765,6.7,8.7,64,991.71,16.5,58,20.33,0.0,1018.05,311.7
2018-08-06 18:10,50.63046,-96.9807633333333,6.6,9.1,68,991.72,16.5,56,20.36,0.0,1018.07,311.7
2018-08-06 18:20,50.63046,-96.9807633333333,6.0,8.5,75,991.72,17.0,54,20.35,0.0,1018.06,311.7
2018-08-06 18:30,50.6304583333333,-96.9807633333333,5.7,8.1,79,991.65,17.0,53,20.39,0.0,1017.99,311.7
2018-08-06 18:40,50.63045,-96.9807733333333,6.0,8.0,82,991.55,17.4,53,20.36,0.0,1017.87,311.7
2018-08-06 18:50,50.630455,-96.9807766666667,5.5,8.3,84,991.46,17.5,53,20.36,0.0,1017.78,311.7
2018-08-06 19:00,50.6304466666667,-96.980765,5.6,7.7,96,991.46,17.7,54,20.38,0.0,1017.77,360.0
2018-08-06 19:10,50.630455,-96.98077,5.5,8.1,91,991.40,17.9,54,20.41,0.0,1017.69,360.0
2018-08-06 19:20,50.6304533333333,-96.9807666666667,6.0,9.0,95,991.25,18.2,52,20.45,0.0,1017.53,360.0
2018-08-06 19:30,50.6304566666667,-96.9807666666667,6.5,8.8,84,991.06,18.0,53,20.50,0.0,1017.35,360.0
2018-08-06 19:40,50.6304533333333,-96.9807666666667,6.7,9.4,92,991.01,18.2,55,20.55,0.0,1017.29,360.0
2018-08-06 19:50,50.630455,-96.9807666666667,6.2,9.7,99,990.97,18.2,54,20.58,0.0,1017.23,360.0
2018-08-06 20:00,50.6304566666667,-96.9807666666667,6.1,9.1,107,990.83,18.3,55,20.55,0.0,1017.08,311.7
2018-08-06 20:10,50.630455,-96.9807666666667,5.8,8.0,102,990.73,18.5,54,20.57,0.0,1016.95,311.7
2018-08-06 20:20,50.6304516666667,-96.9807683333333,6.6,9.6,104,990.66,18.6,56,20.61,0.0,1016.87,311.7
2018-08-06 20:30,50.6304583333333,-96.980775,7.6,10.1,111,990.50,18.3,58,20.76,0.0,1016.71,311.7
2018-08-06 20:40,50.6304583333333,-96.9807683333333,7.0,10.3,114,990.39,18.0,58,20.92,0.0,1016.60,311.7
2018-08-06 20:50,50.6304583333333,-96.9807683333333,7.5,10.2,112,990.24,18.3,58,20.94,0.0,1016.43,311.7
2018-08-06 21:00,50.630445,-96.980795,8.1,11.2,124,990.13,18.1,59,20.88,0.0,1016.31,243.3
2018-08-06 21:10,50.6304566666667,-96.980775,8.5,11.3,113,990.01,18.3,59,20.99,0.0,1016.17,243.3
2018-08-06 21:20,50.6304466666667,-96.9807683333333,8.8,11.7,123,989.89,18.1,60,21.10,0.0,1016.06,243.3
2018-08-06 21:30,50.630465,-96.98076,8.9,11.9,120,989.77,18.2,61,21.17,0.0,1015.92,243.3
2018-08-06 21:40,50.6304566666667,-96.9807533333333,9.3,11.3,121,989.67,18.4,62,21.15,0.0,1015.81,243.3
2018-08-06 21:50,50.630455,-96.9807566666667,8.7,11.0,125,989.55,18.5,62,21.09,0.0,1015.69,243.3
2018-08-06 22:00,50.6304533333333,-96.9807533333333,9.6,11.8,119,989.51,18.7,62,21.15,0.0,1015.62,60.8
2018-08-06 22:10,50.630455,-96.980755,9.6,11.8,123,989.36,18.9,63,21.18,0.0,1015.45,60.8
2018-08-06 22:20,50.6304566666667,-96.9807566666667,9.7,12.6,125,989.18,19.0,62,21.18,0.0,1015.28,60.8
2018-08-06 22:30,50.6304566666667,-96.9807583333333,9.9,12.5,128,989.02,19.1,63,21.21,0.0,1015.12,60.8
2018-08-06 22:40,50.6304566666667,-96.98076,9.9,11.6,123,988.84,19.4,63,21.28,0.0,1014.91,60.8
2018-08-06 22:50,50.630455,-96.9807616666667,10.1,12.1,128,988.73,19.6,63,21.30,0.0,1014.79,60.8
2018-08-06 23:00,50.6304566666667,-96.9808016666667,9.5,11.1,124,988.56,19.9,62,21.24,0.0,1014.60,270.0
2018-08-06 23:10,50.63046,-96.9807616666667,9.1,11.2,132,988.42,20.1,61,21.27,0.0,1014.45,270.0
2018-08-06 23:20,50.6304616666667,-96.9807666666667,7.9,11.8,136,988.28,20.4,58,21.40,0.0,1014.30,270.0
